Paganella, Italy

9:27 AM CET on January 17, 2018 (GMT +0100)
Paganella

Weather History for LIVP - April, 2013

Change the Weather History Date:

Monday, April 1, 2013

  Actual Average Record
Temperature  
Mean Temperature 22 °F -  
Max Temperature 27 °F 35 °F 44 °F (2011)
Min Temperature 17 °F 26 °F 17 °F (2013)
Degree Days  
Heating Degree Days 43    
Moisture  
Dew Point 19 °F    
Average Humidity 84    
Maximum Humidity 93    
Minimum Humidity 72    
Precipitation  
Precipitation 0.00 in 0.05 in - ()
Sea Level Pressure  
Sea Level Pressure 29.48 in    
Wind  
Wind Speed 6 mph ()    
Max Wind Speed 16 mph    
Max Gust Speed -    
Visibility 4.0 miles    
Events Fog    
Averages and records for this station are not official NWS values.
T = Trace of Precipitation, MM = Missing Value Source: Averaged Metar Reports

Daily Weather History Graph

Daily Weather History Graph

Search for Another Location

Airport or City:

Trip Planner

Search our weather history database for the weather conditions in past years. The results will help you decide how hot, cold, wet, or windy it might be!

Date:

Astronomy

Apr. 01, 2013 Rise Set
Actual Time 6:55 AM CEST 7:44 PM CEST
Civil Twilight 6:25 AM CEST 8:14 PM CEST
Nautical Twilight 5:49 AM CEST 8:51 PM CEST
Astronomical Twilight 5:11 AM CEST 9:29 PM CEST
Moon 12:50 AM CEST (4/1) 10:10 AM CEST (4/1)
Length of Visible Light 13h 49m
Length of Day
12h 48m
Waning Gibbous, 70% of the Moon is Illuminated
Apr 1
Waning Gibbous
Apr 3
Last Quarter
Apr 10
New
Apr 18
First Quarter
Apr 25
Full

Hourly Weather History & Observations

Time (CEST) Temp. Windchill Dew Point Humidity Pressure Visibility Wind Dir Wind Speed Gust Speed Precip Events Conditions
12:55 AM 17.6 °F 8.2 °F 12.2 °F 79% 29.44 in 6.2 mi NNE 6.9 mph - N/A   Partly Cloudy
1:55 AM 19.4 °F 11.5 °F 14.0 °F 80% 29.44 in 6.2 mi North 5.8 mph - N/A   Partly Cloudy
2:00 AM 19 °F - 14 °F 72%  in 12 mi North 5.8 mph - -   Partly Cloudy
2:55 AM 19.4 °F - 14.0 °F 80% 29.44 in 6.2 mi WNW 2.3 mph - N/A   Partly Cloudy
3:55 AM 19.4 °F - 15.8 °F 86% 29.44 in 6.2 mi Calm Calm - N/A   Partly Cloudy
4:55 AM 19.4 °F 14.3 °F 15.8 °F 86% 29.44 in 6.2 mi SW 3.5 mph - N/A   Partly Cloudy
5:00 AM 19 °F - 15 °F 78%  in 19 mi SW 3.5 mph - -   Scattered Clouds
5:55 AM 19.4 °F 12.8 °F 14.0 °F 80% 29.44 in 6.2 mi SW 4.6 mph - N/A   Scattered Clouds
6:55 AM 17.6 °F 9.3 °F 12.2 °F 79% 29.44 in 6.2 mi SW 5.8 mph - N/A   Partly Cloudy
7:55 AM 17.6 °F 10.7 °F 14.0 °F 86% 29.44 in 6.2 mi SW 4.6 mph - N/A   Scattered Clouds
8:00 AM 18 °F - 13 °F 73%  in 31 mi SW 4.6 mph - -   Partly Cloudy
9:55 AM 19.4 °F 10.4 °F 15.8 °F 86% 29.47 in 6.2 mi SW 6.9 mph - N/A   Mostly Cloudy
10:55 AM 21.2 °F 13.6 °F 17.6 °F 86% 29.47 in 6.2 mi West 5.8 mph - N/A   Scattered Clouds
11:00 AM 21 °F - 17 °F 78%  in 6 mi West 5.8 mph - -   Partly Cloudy
11:55 AM 23.0 °F 11.7 °F 17.6 °F 80% 29.47 in 6.2 mi West 11.5 mph - N/A   Scattered Clouds
12:55 PM 23.0 °F 15.8 °F 19.4 °F 86% 29.50 in 6.2 mi SSW 5.8 mph - N/A   Mostly Cloudy
1:55 PM 24.8 °F 15.3 °F 21.2 °F 86% 29.50 in 0.0 mi SW 9.2 mph - N/A Fog Light Freezing Fog
2:00 PM 24 °F - 21 °F 83%  in 0 mi SW 9.2 mph - - Fog Heavy Fog
2:55 PM 24.8 °F 14.6 °F 23.0 °F 93% 29.50 in 0.0 mi SW 10.4 mph - N/A Fog Light Freezing Fog
3:55 PM 26.6 °F 16.8 °F 23.0 °F 86% 29.50 in 0.3 mi SSW 10.4 mph - N/A Fog Light Freezing Fog
4:55 PM 26.6 °F 16.8 °F 24.8 °F 93% 29.50 in 0.6 mi South 10.4 mph - N/A Fog Light Freezing Fog
5:00 PM 27 °F - 24 °F 84%  in 1 mi South 10.4 mph - - Fog Heavy Fog
5:55 PM 26.6 °F 15.2 °F 23.0 °F 86% 29.50 in 6.2 mi SSW 13.8 mph - N/A   Scattered Clouds
6:55 PM 24.8 °F 13.4 °F 21.2 °F 86% 29.50 in 0.0 mi South 12.7 mph - N/A Fog Light Freezing Fog
7:55 PM 24.8 °F 11.9 °F 21.2 °F 86% 29.50 in 0.0 mi SSW 16.1 mph - N/A Fog Light Freezing Fog
8:00 PM 25 °F - 22 °F 81%  in 0 mi SSW 16.1 mph - - Fog Heavy Fog
8:55 PM 24.8 °F 14.6 °F 23.0 °F 93% 29.50 in 0.0 mi South 10.4 mph - N/A Fog Light Freezing Fog
9:55 PM 24.8 °F 16.9 °F 23.0 °F 93% 29.53 in 0.0 mi South 6.9 mph - N/A Fog Light Freezing Fog
10:55 PM 24.8 °F 16.1 °F 23.0 °F 93% 29.53 in 0.0 mi SW 8.1 mph - N/A Fog Light Freezing Fog
11:00 PM 25 °F - 22 °F 86%  in 0 mi SW 8.1 mph - - Fog Heavy Fog
11:55 PM 24.8 °F 19.1 °F 23.0 °F 93% 29.53 in 0.0 mi SSW 4.6 mph - N/A Fog Light Freezing Fog